Find Starlink 1821

NORAD ID: 46718 Int'l Des: 2020-073 Owner: SPXS Country: US Constellation: starlink operational
LEOCIRCULAR

当前视图

正在加载3D地球...

About Starlink 1821

Starlink 1821 (NORAD 46718) is a starlink constellation satellite (v1.0) launched Oct 18, 2020 by SPXS of US. It operates in LEO, CIRCULAR orbit with a mass of 260.00 kg.

即将过境

Passes for default location (London). Set your location on the main map for personalized predictions.

高度历史

Loading altitude history...

两行轨道根数

1 46718U 20073BA 26265.54790570 .00112815 00000-0 86748-3 0 9990
2 46718 53.0344 357.7194 0003223 340.1782 19.9110 15.71203332327930
Epoch: Sep 22, 2026 • Age: 19 hours

当前状态

高度 361.5 km
远地点 / 近地点 N/A
速度 7.70 km/s
星下点 52.15°N, 51.09°W
发射日期 Oct 18, 2020
运行时间 5.9 years
类型 internet

技术详情

分类 Payload
质量 260.00 kg
干质量 248.00 kg
长度 0.20 m
跨度 9.00 m
形状 ? Box + pan
制造商 SPXS
平台类型 Starlink
阶段状态 In Orbit
所有者/国家 SPXS/US

Most Searched